Location: Althorst
(53.6379°N, 10.7715°E)
Time: 03:22:40
(UTC+00:00)

Lacrosse 5 rocket - Pass Details

Date: 10 December 2019
Orbit: 465 x 632 km, 57.0° (Epoch: 27 January)

Event Time Altitude Azimuth Distance (km) Brightness Sun altitude
Rises 18:38:23 0° 266° (W) 2,756 6.0 -31.3°
Reaches altitude 10° 18:40:43 10° 271° (W) 1,831 4.8 -31.7°
Enters shadow 18:42:23 22° 279° (W) 1,205 3.6 -31.9°
